Overview Statistics Trail Chart Weather Telemetry Raw packets
 

This is the latest recevied weather packets stored in our database for station/object 4S6DRJ-13. If no packets are shown the sender has not sent any weather packets the latest 10 day(s).

<< 274 275 276 277 278 279 280 >>
Time Temp. Humidity Pressure Rain* Wind** Luminosity Snow
1788065872 30.56° C 73% 1010.8 hPa 0 mm 0.89 m/s, 201° 925 W/m² -
1788065811 30.56° C 73% 1010.8 hPa 0 mm 1.34 m/s, 272° 790 W/m² -
1788065750 30.56° C 73% 1010.9 hPa 0 mm 0.89 m/s, 276° 956 W/m² -
1788065689 30.56° C 73% 1010.8 hPa 0 mm 3.13 m/s, 206° 686 W/m² -
1788065628 30.56° C 73% 1011.1 hPa 0 mm 4.02 m/s, 252° 603 W/m² -
1788065567 30.56° C 73% 1010.8 hPa 0 mm 1.34 m/s, 279° 998 W/m² -
1788065506 30.56° C 72% 1011.1 hPa 0 mm 2.68 m/s, 245° 913 W/m² -
1788065445 30.56° C 73% 1010.9 hPa 0 mm 1.79 m/s, 249° 977 W/m² -
1788065384 30.56° C 73% 1010.8 hPa 0 mm 1.34 m/s, 219° 958 W/m² -
1788065323 30.56° C 73% 1010.8 hPa 0 mm 0.45 m/s, 214° 952 W/m² -
1788065262 30.56° C 72% 1010.8 hPa 0 mm 3.13 m/s, 223° 915 W/m² -
1788065201 30.56° C 72% 1010.8 hPa 0 mm 3.58 m/s, 206° 890 W/m² -
1788065140 30.56° C 75% 1010.8 hPa 0 mm 2.24 m/s, 36° 712 W/m² -
1788065079 30° C 74% 1010.9 hPa 0 mm 0.89 m/s, 141° 840 W/m² -
1788065018 30° C 74% 1010.9 hPa 0 mm 1.34 m/s, 284° 426 W/m² -
1788064957 30° C 74% 1010.9 hPa 0 mm 1.79 m/s, 195° 474 W/m² -
1788064896 30° C 73% 1010.9 hPa 0 mm 1.79 m/s, 158° 407 W/m² -
1788064835 30.56° C 73% 1010.9 hPa 0 mm 2.68 m/s, 285° 752 W/m² -
1788064774 30.56° C 73% 1011 hPa 0 mm 2.68 m/s, 208° 884 W/m² -
1788064714 30.56° C 72% 1011 hPa 0 mm 2.68 m/s, 184° 386 W/m² -
1788064652 30.56° C 74% 1010.9 hPa 0 mm 1.34 m/s, 141° 560 W/m² -
1788064591 31.11° C 74% 1010.9 hPa 0 mm 0.89 m/s, 207° 892 W/m² -
1788064530 31.11° C 73% 1010.9 hPa 0 mm 2.24 m/s, 230° 363 W/m² -
1788064469 30.56° C 73% 1011.1 hPa 0 mm 1.79 m/s, 243° 409 W/m² -
1788064408 30.56° C 73% 1011 hPa 0 mm 0.45 m/s, 233° 420 W/m² -

* Rain latest hour (hover to see other rain measurements)
** Current wind speed in m/s (hover to see current wind gust speed)